Hutchinson, MN

11:39 PM CST on February 24, 2017 (GMT -0600)
Hutchinson Municipal-Butler

Weather History for KHCD - September, 2012

Change the Weather History Date:

Saturday, September 29, 2012

  Actual Average Record
Temperature  
Mean Temperature 63 °F -  
Max Temperature 80 °F 67 °F 85 °F (1971)
Min Temperature 46 °F 43 °F 23 °F (2004)
Degree Days  
Heating Degree Days 2    
Growing Degree Days 13 (Base 50)    
Moisture  
Dew Point 42 °F    
Average Humidity 57    
Maximum Humidity 84    
Minimum Humidity 26    
Precipitation  
Precipitation 0.00 in - - ()
Sea Level Pressure  
Sea Level Pressure 30.09 in    
Wind  
Wind Speed 2 mph (WNW)    
Max Wind Speed 8 mph    
Max Gust Speed -    
Visibility 10 miles    
Events      
Averages and records for this station are not official NWS values.
T = Trace of Precipitation, MM = Missing Value Source: NWS Daily Summary

Daily Weather History Graph

Daily Weather History Graph

Search for Another Location

Airport or City:

Trip Planner

Search our weather history database for the weather conditions in past years. The results will help you decide how hot, cold, wet, or windy it might be!

Date:

Astronomy

Sep. 29, 2012 Rise Set
Actual Time 7:13 AM CDT 7:00 PM CDT
Civil Twilight 6:44 AM CDT 7:29 PM CDT
Nautical Twilight 6:10 AM CDT 8:03 PM CDT
Astronomical Twilight 5:35 AM CDT 8:38 PM CDT
Moon 6:31 PM CDT (9/29) 6:46 AM CDT (9/29)
Length of Visible Light 12h 45m
Length of Day
11h 47m
Full, 100% of the Moon is Illuminated
Sep 29
Full
Sep 29
Full
Oct 8
Last Quarter
Oct 15
New
Oct 21
First Quarter

Hourly Weather History & Observations

Time (CDT) Temp. Windchill Dew Point Humidity Pressure Visibility Wind Dir Wind Speed Gust Speed Precip Events Conditions
12:10 AM 53.6 °F - 39.2 °F 58% 30.11 in 10.0 mi Calm Calm - N/A   Clear
12:30 AM 51.8 °F - 39.2 °F 62% 30.11 in 10.0 mi Calm Calm - N/A   Clear
12:50 AM 51.8 °F - 39.2 °F 62% 30.11 in 10.0 mi Calm Calm - N/A   Clear
1:10 AM 50.0 °F - 39.2 °F 66% 30.11 in 10.0 mi West 3.5 mph - N/A   Clear
1:30 AM 48.2 °F - 41.0 °F 76% 30.11 in 10.0 mi Calm Calm - N/A   Clear
1:50 AM 53.6 °F - 41.0 °F 62% 30.11 in 10.0 mi West 3.5 mph - N/A   Clear
2:10 AM 53.6 °F - 39.2 °F 58% 30.11 in 10.0 mi WSW 3.5 mph - N/A   Clear
2:30 AM 53.6 °F - 39.2 °F 58% 30.11 in 10.0 mi West 4.6 mph - N/A   Clear
2:50 AM 53.6 °F - 39.2 °F 58% 30.11 in 10.0 mi West 3.5 mph - N/A   Clear
3:10 AM 53.6 °F - 39.2 °F 58% 30.11 in 10.0 mi WSW 4.6 mph - N/A   Clear
3:30 AM 53.6 °F - 39.2 °F 58% 30.11 in 10.0 mi WSW 3.5 mph - N/A   Clear
3:50 AM 53.6 °F - 39.2 °F 58% 30.11 in 10.0 mi West 3.5 mph - N/A   Clear
4:10 AM 50.0 °F - 39.2 °F 66% 30.11 in 7.0 mi West 4.6 mph - N/A   Clear
4:30 AM 48.2 °F - 37.4 °F 66% 30.12 in 7.0 mi Calm Calm - N/A   Clear
4:50 AM 48.2 °F - 39.2 °F 71% 30.12 in 10.0 mi Calm Calm - N/A   Clear
5:10 AM 46.4 °F 45.2 °F 39.2 °F 76% 30.11 in 10.0 mi West 3.5 mph - N/A   Clear
5:30 AM 48.2 °F - 39.2 °F 71% 30.11 in 10.0 mi West 4.6 mph - N/A   Clear
5:50 AM 46.4 °F - 39.2 °F 76% 30.12 in 10.0 mi Calm Calm - N/A   Clear
6:10 AM 48.2 °F - 39.2 °F 71% 30.12 in 10.0 mi West 3.5 mph - N/A   Clear
6:30 AM 48.2 °F - 39.2 °F 71% 30.12 in 10.0 mi Calm Calm - N/A   Clear
6:50 AM 48.2 °F - 41.0 °F 76% 30.13 in 10.0 mi Calm Calm - N/A   Clear
7:10 AM 46.4 °F - 39.2 °F 76% 30.13 in 10.0 mi Calm Calm - N/A   Clear
7:30 AM 46.4 °F - 39.2 °F 76% 30.13 in 10.0 mi Calm Calm - N/A   Clear
7:50 AM 48.2 °F - 41.0 °F 76% 30.13 in 10.0 mi Calm Calm - N/A   Clear
8:10 AM 48.2 °F - 41.0 °F 76% 30.13 in 10.0 mi Calm Calm - N/A   Clear
8:30 AM 53.6 °F - 44.6 °F 72% 30.14 in 10.0 mi Calm Calm - N/A   Clear
8:50 AM 57.2 °F - 42.8 °F 59% 30.14 in 10.0 mi Calm Calm - N/A   Clear
9:10 AM 59.0 °F - 42.8 °F 55% 30.14 in 10.0 mi Calm Calm - N/A   Clear
9:30 AM 62.6 °F - 42.8 °F 48% 30.14 in 10.0 mi NW 4.6 mph - N/A   Clear
9:50 AM 68.0 °F - 44.6 °F 43% 30.13 in 10.0 mi WNW 4.6 mph - N/A   Clear
10:10 AM 69.8 °F - 44.6 °F 40% 30.13 in 10.0 mi NW 4.6 mph - N/A   Clear
10:30 AM 73.4 °F - 44.6 °F 36% 30.13 in 10.0 mi NW 4.6 mph - N/A   Clear
10:50 AM 73.4 °F - 42.8 °F 33% 30.13 in 10.0 mi NW 4.6 mph - N/A   Clear
11:10 AM 77.0 °F - 44.6 °F 32% 30.13 in 10.0 mi NNW 5.8 mph - N/A   Clear
11:30 AM 77.0 °F - 42.8 °F 29% 30.12 in 10.0 mi NNW 6.9 mph - N/A   Clear
11:50 AM 78.8 °F - 42.8 °F 28% 30.11 in 10.0 mi NNW 8.1 mph - N/A   Clear
12:10 PM 78.8 °F - 42.8 °F 28% 30.11 in 10.0 mi NW 5.8 mph - N/A   Clear
12:35 PM 78.8 °F - 42.8 °F 28% 30.10 in 10.0 mi North 4.6 mph - N/A   Clear
12:50 PM 78.8 °F - 42.8 °F 28% 30.10 in - NNW 4.6 mph - N/A   Clear
1:10 PM 78.8 °F - 41.0 °F 26% 30.09 in 10.0 mi North 5.8 mph - N/A   Clear
1:30 PM 80.6 °F - 42.8 °F 26% 30.09 in 10.0 mi Calm Calm - N/A   Clear
5:58 PM 78.1 °F - 48.2 °F 35% 30.01 in 10.0 mi Calm Calm - N/A   Clear
6:09 PM 77.0 °F - 45.5 °F 33% 30.01 in 10.0 mi Calm Calm - N/A   Clear
6:29 PM 74.5 °F - 44.6 °F 34% 30.01 in 10.0 mi Calm Calm - N/A   Clear
6:49 PM 70.5 °F - 47.1 °F 43% 30.01 in 10.0 mi Calm Calm - N/A   Clear
7:09 PM 67.8 °F - 48.4 °F 50% 30.02 in 10.0 mi Calm Calm - N/A   Clear
7:29 PM 65.3 °F - 43.3 °F 45% 30.02 in 10.0 mi Calm Calm - N/A   Clear
7:49 PM 66.4 °F - 45.3 °F 47% 30.02 in 10.0 mi Calm Calm - N/A   Clear
8:09 PM 61.7 °F - 44.4 °F 53% 30.02 in 10.0 mi Calm Calm - N/A   Clear
8:29 PM 57.9 °F - 44.6 °F 61% 30.02 in 10.0 mi Calm Calm - N/A   Clear
9:09 PM 55.9 °F - 44.8 °F 66% 30.03 in 10.0 mi Calm Calm - N/A   Clear
9:29 PM 54.9 °F - 44.8 °F 69% 30.03 in 10.0 mi Calm Calm - N/A   Clear
9:49 PM 54.3 °F - 44.8 °F 70% 30.04 in 10.0 mi Calm Calm - N/A   Clear
10:09 PM 54.1 °F - 45.7 °F 73% 30.04 in 10.0 mi Calm Calm - N/A   Clear
10:29 PM 51.8 °F - 44.6 °F 76% 30.04 in 10.0 mi Calm Calm - N/A   Clear
10:49 PM 51.8 °F - 43.7 °F 74% 30.04 in 10.0 mi Calm Calm - N/A   Clear
11:08 PM 53.6 °F - 45.7 °F 75% 30.04 in 10.0 mi Calm Calm - N/A   Clear
11:29 PM 49.6 °F - 43.0 °F 78% 30.04 in 7.0 mi Calm Calm - N/A   Clear
11:49 PM 49.1 °F - 44.6 °F 84% 30.04 in 10.0 mi Calm Calm - N/A   Clear